OK1VCF-8 Weather Reports


time (UTC)temp
C
wind
direction
speed
KPH
gust
KPH
rain 1hr
cm
rain 24hr
cm
rain mn
cm
humidity
%
barometer
mb
20260509041028 10 0 0.0 0.0 0.00 0.00 0.00 84 1020.6
20260509040310 10 0 0.0 0.0 0.00 0.00 0.00 87 1020.6
20260509035552 8 0 0.0 0.0 0.00 0.00 0.00 89 1020.6
20260509034834 8 0 0.0 0.0 0.00 0.00 0.00 89 1020.6
20260509034116 7 0 0.0 0.0 0.00 0.00 0.00 90 1020.8
20260509031932 7 0 0.0 0.0 0.00 0.00 0.00 90 1020.8
20260509031213 7 0 0.0 0.0 0.00 0.00 0.00 90 1020.8
20260509030456 7 0 0.0 0.0 0.00 0.00 0.00 89 1020.8
20260509025736 7 0 0.0 0.0 0.00 0.00 0.00 89 1020.8
20260509025017 7 0 0.0 0.0 0.00 0.00 0.00 88 1021.0
20260509024300 8 0 0.0 0.0 0.00 0.00 0.00 88 1020.9
20260509023541 7 0 0.0 0.0 0.00 0.00 0.00 88 1020.8
20260509022541 8 0 0.0 0.0 0.00 0.00 0.00 88 1020.8
20260509021822 8 0 0.0 0.0 0.00 0.00 0.00 88 1020.8
20260509021103 8 0 0.0 0.0 0.00 0.00 0.00 88 1020.8
20260509020345 8 0 0.0 0.0 0.00 0.00 0.00 88 1020.8
20260509015629 8 0 0.0 0.0 0.00 0.00 0.00 88 1021.0
20260509014910 8 0 0.0 0.0 0.00 0.00 0.00 87 1020.9
20260509014153 8 0 0.0 0.0 0.00 0.00 0.00 88 1021.0
20260509013434 8 0 0.0 0.0 0.00 0.00 0.00 88 1020.8
20260509012711 8 0 0.0 0.0 0.00 0.00 0.00 88 1020.9
20260509011938 8 0 0.0 0.0 0.00 0.00 0.00 88 1020.9
20260509011200 8 0 0.0 0.0 0.00 0.00 0.00 88 1020.9
20260509004934 8 0 0.0 0.0 0.00 0.00 0.00 86 1020.9
20260509004137 8 0 0.0 0.0 0.00 0.00 0.00 86 1020.8
20260509003041 8 0 0.0 0.0 0.00 0.00 0.00 86 1020.8
20260509002241 8 0 0.0 0.0 0.00 0.00 0.00 86 1020.8
20260509001440 8 0 0.0 0.0 0.00 0.00 0.00 86 1020.9
20260509000621 8 0 0.0 0.0 0.00 0.00 0.00 86 1020.9
20260508235824 9 0 0.0 0.0 0.00 0.00 0.00 84 1020.8
20260508235027 9 0 0.0 0.0 0.00 0.00 0.00 84 1020.9
20260508234231 9 0 0.0 0.0 0.00 0.00 0.00 84 1020.9
20260508233451 9 0 0.0 0.0 0.00 0.00 0.00 84 1020.9
20260508232714 10 0 0.0 0.0 0.00 0.00 0.00 83 1021.0
20260508231948 10 0 0.0 0.0 0.00 0.00 0.00 83 1021.0
20260508231230 10 0 0.0 0.0 0.00 0.00 0.00 82 1021.0
20260508230513 10 0 0.0 0.0 0.00 0.00 0.00 83 1021.0
20260508225756 10 0 0.0 0.0 0.00 0.00 0.00 83 1021.0
20260508225038 10 0 0.0 0.0 0.00 0.00 0.00 83 1021.0
20260508224320 10 0 0.0 0.0 0.00 0.00 0.00 82 1021.0
20260508223315 10 0 0.0 0.0 0.00 0.00 0.00 82 1021.0
20260508222558 10 0 0.0 0.0 0.00 0.00 0.00 82 1021.2
20260508221839 10 0 0.0 0.0 0.00 0.00 0.00 82 1021.2
20260508221122 10 0 0.0 0.0 0.00 0.00 0.00 82 1021.1
20260508220403 10 0 0.0 0.0 0.00 0.00 0.00 81 1021.2
20260508215646 10 0 0.0 0.0 0.00 0.00 0.00 81 1021.2
20260508214928 10 0 0.0 0.0 0.00 0.00 0.00 81 1021.0
20260508214210 10 0 0.0 0.0 0.00 0.00 0.00 80 1021.0
20260508213454 10 0 0.0 0.0 0.00 0.00 0.00 80 1021.0
20260508212736 10 0 0.0 0.0 0.00 0.00 0.00 81 1021.0
20260508212019 10 0 0.0 0.0 0.00 0.00 0.00 81 1021.0
20260508211300 10 0 0.0 0.0 0.00 0.00 0.00 80 1020.8
20260508210543 10 0 0.0 0.0 0.00 0.00 0.00 80 1021.0
20260508205826 10 0 0.0 0.0 0.00 0.00 0.00 82 1021.2
20260508205108 10 0 0.0 0.0 0.00 0.00 0.00 82 1021.0
20260508204108 10 0 0.0 0.0 0.00 0.00 0.00 82 1021.0
20260508203351 10 0 0.0 0.0 0.00 0.00 0.00 82 1020.8
20260508202634 9 0 0.0 0.0 0.00 0.00 0.00 82 1020.8
20260508201915 10 0 0.0 0.0 0.00 0.00 0.00 82 1020.6
20260508201158 10 0 0.0 0.0 0.00 0.00 0.00 82 1020.8
20260508200439 10 0 0.0 0.0 0.00 0.00 0.00 82 1020.7
20260508195721 10 0 0.0 0.0 0.00 0.00 0.00 82 1020.8
20260508195005 10 0 0.0 0.0 0.00 0.00 0.00 81 1020.6
20260508192828 10 0 0.0 0.0 0.00 0.00 0.00 80 1020.4
20260508192109 10 0 0.0 0.0 0.00 0.00 0.00 79 1020.4
20260508191352 11 0 0.0 0.0 0.00 0.00 0.00 78 1020.2
20260508190633 11 0 0.0 0.0 0.00 0.00 0.00 77 1020.2
20260508185915 11 0 0.0 0.0 0.00 0.00 0.00 78 1020.2
20260508184913 11 0 0.0 0.0 0.00 0.00 0.00 76 1020.0
20260508184153 11 0 0.0 0.0 0.00 0.00 0.00 76 1019.8
20260508183434 11 0 0.0 0.0 0.00 0.00 0.00 74 1019.6
20260508182715 12 0 0.0 0.0 0.00 0.00 0.00 74 1019.6
20260508181956 12 0 0.0 0.0 0.00 0.00 0.00 72 1019.6
20260508181237 12 0 0.0 0.0 0.00 0.00 0.00 72 1019.4
20260508180520 12 0 0.0 0.0 0.00 0.00 0.00 70 1019.2
20260508175800 12 0 0.0 0.0 0.00 0.00 0.00 70 1019.1
20260508175041 13 0 0.0 0.0 0.00 0.00 0.00 68 1019.2
20260508174322 13 0 0.0 0.0 0.00 0.00 0.00 66 1019.0
20260508173604 14 0 0.0 0.0 0.00 0.00 0.00 64 1019.1
20260508172844 14 0 0.0 0.0 0.00 0.00 0.00 64 1019.2
20260508172125 14 0 0.0 0.0 0.00 0.00 0.00 62 1019.0
20260508171406 14 0 0.0 0.0 0.00 0.00 0.00 62 1018.9
20260508170648 15 0 0.0 0.0 0.00 0.00 0.00 62 1018.8
20260508165643 15 0 0.0 0.0 0.00 0.00 0.00 60 1018.9
20260508164925 18 0 0.0 0.0 0.00 0.00 0.00 49 1018.9
20260508164208 19 0 0.0 0.0 0.00 0.00 0.00 48 1018.8
20260508163448 19 0 0.0 0.0 0.00 0.00 0.00 48 1018.8
20260508162728 17 0 0.0 0.0 0.00 0.00 0.00 53 1019.0
20260508162010 15 0 0.0 0.0 0.00 0.00 0.00 58 1019.0
20260508161252 16 0 0.0 0.0 0.00 0.00 0.00 54 1018.9
20260508160534 17 0 0.0 0.0 0.00 0.00 0.00 51 1019.0
20260508155812 16 0 0.0 0.0 0.00 0.00 0.00 53 1019.0
20260508155052 20 0 0.0 0.0 0.00 0.00 0.00 46 1019.0
20260508154335 20 0 0.0 0.0 0.00 0.00 0.00 46 1019.0
20260508152154 20 0 0.0 0.0 0.00 0.00 0.00 46 1018.8
20260508151433 17 0 0.0 0.0 0.00 0.00 0.00 49 1019.0
20260508150431 20 0 0.0 0.0 0.00 0.00 0.00 47 1019.1
20260508145711 18 0 0.0 0.0 0.00 0.00 0.00 49 1019.1
20260508144951 20 0 0.0 0.0 0.00 0.00 0.00 46 1019.2
20260508144233 20 0 0.0 0.0 0.00 0.00 0.00 47 1019.2
20260508143513 16 0 0.0 0.0 0.00 0.00 0.00 56 1019.2
20260508142753 17 0 0.0 0.0 0.00 0.00 0.00 54 1019.4
20260508142032 16 0 0.0 0.0 0.00 0.00 0.00 56 1019.3
20260508141312 16 0 0.0 0.0 0.00 0.00 0.00 54 1019.4
20260508140554 16 0 0.0 0.0 0.00 0.00 0.00 56 1019.4
20260508135834 15 0 0.0 0.0 0.00 0.00 0.00 56 1019.4
20260508135114 16 0 0.0 0.0 0.00 0.00 0.00 56 1019.4
20260508134356 16 0 0.0 0.0 0.00 0.00 0.00 56 1019.4
20260508133636 15 0 0.0 0.0 0.00 0.00 0.00 59 1019.3
20260508132916 15 0 0.0 0.0 0.00 0.00 0.00 60 1019.4
20260508132158 15 0 0.0 0.0 0.00 0.00 0.00 58 1020.0
20260508131153 15 0 0.0 0.0 0.00 0.00 0.00 56 1019.5
20260508130433 15 0 0.0 0.0 0.00 0.00 0.00 56 1019.6
20260508125650 15 0 0.0 0.0 0.00 0.00 0.00 57 1019.5
20260508124855 16 0 0.0 0.0 0.00 0.00 0.00 56 1019.5
20260508124044 16 0 0.0 0.0 0.00 0.00 0.00 56 1019.4
20260508123223 16 0 0.0 0.0 0.00 0.00 0.00 56 1019.4
20260508122408 15 0 0.0 0.0 0.00 0.00 0.00 56 1019.4
20260508121544 15 0 0.0 0.0 0.00 0.00 0.00 56 1019.4
20260508120724 16 0 0.0 0.0 0.00 0.00 0.00 56 1019.4
20260508114347 15 0 0.0 0.0 0.00 0.00 0.00 58 1019.5
20260508113549 15 0 0.0 0.0 0.00 0.00 0.00 60 1019.5
20260508112811 15 0 0.0 0.0 0.00 0.00 0.00 60 1019.6
20260508112043 15 0 0.0 0.0 0.00 0.00 0.00 60 1019.6
20260508111035 15 0 0.0 0.0 0.00 0.00 0.00 59 1019.6
20260508110316 15 0 0.0 0.0 0.00 0.00 0.00 56 1019.6
20260508105557 15 0 0.0 0.0 0.00 0.00 0.00 59 1019.6
20260508104836 15 0 0.0 0.0 0.00 0.00 0.00 60 1019.6
20260508104115 15 0 0.0 0.0 0.00 0.00 0.00 60 1019.5
20260508103352 15 0 0.0 0.0 0.00 0.00 0.00 57 1019.5
20260508102632 15 0 0.0 0.0 0.00 0.00 0.00 58 1019.6
20260508100447 15 0 0.0 0.0 0.00 0.00 0.00 59 1019.8
20260508095726 14 0 0.0 0.0 0.00 0.00 0.00 62 1019.6
20260508095006 15 0 0.0 0.0 0.00 0.00 0.00 62 1019.7
20260508094246 14 0 0.0 0.0 0.00 0.00 0.00 63 1019.8
20260508093526 14 0 0.0 0.0 0.00 0.00 0.00 63 1019.8
20260508092807 14 0 0.0 0.0 0.00 0.00 0.00 64 1019.8
20260508091802 13 0 0.0 0.0 0.00 0.00 0.00 66 1019.8
20260508091043 13 0 0.0 0.0 0.00 0.00 0.00 68 1019.8
20260508090322 13 0 0.0 0.0 0.00 0.00 0.00 66 1019.8
20260508085602 14 0 0.0 0.0 0.00 0.00 0.00 63 1019.7
20260508084844 14 0 0.0 0.0 0.00 0.00 0.00 63 1019.8
20260508084124 14 0 0.0 0.0 0.00 0.00 0.00 62 1019.7
20260508083404 15 0 0.0 0.0 0.00 0.00 0.00 63 1019.8
20260508082643 14 0 0.0 0.0 0.00 0.00 0.00 65 1019.6
20260508081923 13 0 0.0 0.0 0.00 0.00 0.00 66 1019.6
20260508081202 13 0 0.0 0.0 0.00 0.00 0.00 66 1019.6
20260508080440 13 0 0.0 0.0 0.00 0.00 0.00 66 1019.6
20260508075718 13 0 0.0 0.0 0.00 0.00 0.00 68 1019.6
20260508074959 13 0 0.0 0.0 0.00 0.00 0.00 67 1019.6
20260508074239 13 0 0.0 0.0 0.00 0.00 0.00 68 1019.5
20260508073518 12 0 0.0 0.0 0.00 0.00 0.00 70 1019.5
20260508072513 12 0 0.0 0.0 0.00 0.00 0.00 70 1019.4
20260508071754 12 0 0.0 0.0 0.00 0.00 0.00 68 1019.4
20260508065540 12 0 0.0 0.0 0.00 0.00 0.00 71 1019.2
20260508064802 12 0 0.0 0.0 0.00 0.00 0.00 72 1019.2
20260508064025 11 0 0.0 0.0 0.00 0.00 0.00 72 1019.1
20260508063244 11 0 0.0 0.0 0.00 0.00 0.00 74 1019.0
20260508062504 11 0 0.0 0.0 0.00 0.00 0.00 75 1018.8
20260508061725 11 0 0.0 0.0 0.00 0.00 0.00 76 1019.0
20260508060945 10 0 0.0 0.0 0.00 0.00 0.00 76 1018.8
20260508060207 10 0 0.0 0.0 0.00 0.00 0.00 76 1018.7
20260508055432 10 0 0.0 0.0 0.00 0.00 0.00 77 1018.8
20260508054711 10 0 0.0 0.0 0.00 0.00 0.00 77 1018.7
20260508053951 10 0 0.0 0.0 0.00 0.00 0.00 76 1018.6
20260508052949 10 0 0.0 0.0 0.00 0.00 0.00 78 1018.6
20260508052232 10 0 0.0 0.0 0.00 0.00 0.00 79 1018.5
20260508051514 10 0 0.0 0.0 0.00 0.00 0.00 78 1018.4
20260508050756 10 0 0.0 0.0 0.00 0.00 0.00 79 1018.4
20260508050036 10 0 0.0 0.0 0.00 0.00 0.00 80 1018.4
20260508043845 8 0 0.0 0.0 0.00 0.00 0.00 83 1018.2
20260508043129 8 0 0.0 0.0 0.00 0.00 0.00 84 1018.2
20260508042412 8 0 0.0 0.0 0.00 0.00 0.00 84 1018.2
20260508041653 8 0 0.0 0.0 0.00 0.00 0.00 84 1018.0